Regional Weather Roundup
Issued by NWS

Home | Current Version | Previous Version | Graphics & Text | Print | Product List | Glossary On
Versions: 1 2 3 4 5 6 7 8 9 10 11 12 13 14 15 16 17 18 19 20 21 22 23 24 25 26 27
000
ASUS45 KCYS 270210
RWRWY

WYOMING REGIONAL WEATHER ROUNDUP
NATIONAL WEATHER SERVICE CHEYENNE WY
700 PM MST SUN FEB 26 2017

NOTE:  "FAIR" INDICATES FEW OR NO CLOUDS BELOW 12,000 FEET
WITH NO SIGNIFICANT WEATHER AND/OR OBSTRUCTIONS TO VISIBILITY.

WYZ001-270300-
YELLOWSTONE NATIONAL PARK

CITY           SKY/WX    TMP DP  RH WIND       PRES   REMARKS
LK YELLOWSTONE   N/A     11   8  88 CALM      29.61S
W YELLOWSTONE  NOT AVBL

$$
WYZ002>013-054>058-071-098>099-270300-
NORTHERN WYOMING

CITY           SKY/WX    TMP DP  RH WIND       PRES   REMARKS
JACKSON        CLOUDY    21  16  79 S12       29.67S WCI   9
CODY           FAIR      25   9  50 S13       29.64S WCI  14
GREYBULL       FAIR      28   9  44 CALM      29.68F
WORLAND        FAIR      21  13  71 S8        29.67F WCI  11
SHERIDAN       FAIR      27  14  58 SE10G16   29.66F WCI  17
BUFFALO        FAIR      23   1  38 S6        29.66F WCI  16
GILLETTE       FAIR      24  12  60 SW14      29.70S WCI  12
HULETT         FAIR      27  12  54 S7        29.73R WCI  19
NEWCASTLE      FAIR      19  10  68 E8        29.77S WCI   9

$$
WYZ014>020-022>026-101>103-270300-
CENTRAL WYOMING

CITY           SKY/WX    TMP DP  RH WIND       PRES   REMARKS
BIG PINEY      MOCLDY     3  -1  83 NE5       29.72S WCI  -6
PINEDALE       CLOUDY     1  -6  71 CALM      29.72S
DUBOIS         MOCLDY    14   3  62 NW14      29.60S WCI  -1
LANDER         FAIR      16   1  51 SE5       29.65S WCI   9
RIVERTON       FAIR      17   2  51 SW3       29.66S
CASPER         FAIR      16   5  62 W12       29.71R WCI   3
DOUGLAS        FAIR      19   2  47 CALM      29.75R

$$
WYZ021-027>030-104>119-270300-
SOUTHERN WYOMING

CITY           SKY/WX    TMP DP  RH WIND       PRES   REMARKS
EVANSTON       FAIR      20   6  55 S8        29.68F WCI  10
FORT BRIDGER   FAIR      13   5  68 SE9       29.73F WCI   1
ROCK SPRINGS   FAIR      18   0  45 S5        29.73F WCI  11
DIXON            N/A     12   3  67 NE6       29.80R WCI   2
RAWLINS        FAIR      13   2  61 W7        29.75S WCI   3
SARATOGA       FAIR      12   1  62 W6        29.75S WCI   3
LARAMIE        FAIR      18   3  52 SW10      29.71R WCI   6
CHEYENNE       FAIR      18   9  68 W8        29.75S WCI   8
TORRINGTON     FAIR      23   9  55 S6        29.79S WCI  16
PINE BLUFFS    FAIR      23  12  63 S9        29.79S WCI  13

$$




USA.gov is the U.S. government's official web portal to all federal, state and local government web resources and services.